Cleveland Burke, OH

4:03 AM EDT on October 21, 2017 (GMT -0400)
Burke Lakefront

Weather History for KBKL - July, 2013

Change the Weather History Date:

Saturday, July 20, 2013

  Actual Average Record
Temperature  
Mean Temperature 74 °F -  
Max Temperature 80 °F 79 °F 91 °F (2011)
Min Temperature 69 °F 65 °F 57 °F (2000)
Cooling Degree Days 10    
Growing Degree Days 24 (Base 50)    
Moisture  
Dew Point 69 °F    
Average Humidity 88    
Maximum Humidity 94    
Minimum Humidity 78    
Precipitation  
Precipitation 1.30 in - - ()
Sea Level Pressure  
Sea Level Pressure 29.84 in    
Wind  
Wind Speed 9 mph (SW)    
Max Wind Speed 17 mph    
Max Gust Speed 31 mph    
Visibility 8 miles    
Events Rain , Thunderstorm    
Averages and records for this station are not official NWS values.
T = Trace of Precipitation, MM = Missing Value Source: NWS Daily Summary

Daily Weather History Graph

Daily Weather History Graph

Search for Another Location

Airport or City:

Trip Planner

Search our weather history database for the weather conditions in past years. The results will help you decide how hot, cold, wet, or windy it might be!

Date:

Astronomy

Jul. 20, 2013 Rise Set
Actual Time 6:10 AM EDT 8:55 PM EDT
Civil Twilight 5:37 AM EDT 9:27 PM EDT
Nautical Twilight 4:57 AM EDT 10:08 PM EDT
Astronomical Twilight 4:10 AM EDT 10:54 PM EDT
Moon 6:57 PM EDT (7/20) 3:48 AM EDT (7/20)
Length of Visible Light 15h 49m
Length of Day
14h 45m
Waxing Gibbous, 93% of the Moon is Illuminated
Jul 20
Waxing Gibbous
Jul 22
Full
Jul 29
Last Quarter
Aug 6
New
Aug 14
First Quarter

Hourly Weather History & Observations

Time (EDT) Temp. Heat Index Dew Point Humidity Pressure Visibility Wind Dir Wind Speed Gust Speed Precip Events Conditions
12:53 AM 71.1 °F - 68.0 °F 90% 29.87 in 3.0 mi NE 10.4 mph - 0.11 in Rain , Thunderstorm Heavy Thunderstorms and Rain
1:01 AM 71.6 °F - 69.8 °F 94% 29.86 in 2.0 mi Calm Calm - 0.07 in Rain , Thunderstorm Heavy Thunderstorms and Rain
1:17 AM 71.6 °F - 69.8 °F 94% 29.83 in 5.0 mi SE 11.5 mph - 0.18 in Rain , Thunderstorm Rain
1:53 AM 72.0 °F - 69.1 °F 91% 29.78 in 10.0 mi Calm Calm - 0.20 in Thunderstorm Overcast
2:11 AM 71.6 °F - 69.8 °F 94% 29.79 in 10.0 mi ESE 9.2 mph - N/A Thunderstorm Overcast
2:53 AM 73.9 °F - 69.1 °F 85% 29.74 in 10.0 mi South 16.1 mph 23.0 mph N/A Thunderstorm Mostly Cloudy
3:40 AM 71.6 °F - 69.8 °F 94% 29.85 in 6.0 mi North 16.1 mph 26.5 mph 0.02 in Rain , Thunderstorm Light Thunderstorms and Rain
3:53 AM 71.1 °F - 68.0 °F 90% 29.86 in 5.0 mi North 17.3 mph 31.1 mph 0.03 in Rain , Thunderstorm Heavy Thunderstorms and Rain
3:59 AM 69.8 °F - 68.0 °F 94% 29.86 in 1.8 mi NW 15.0 mph 27.6 mph 0.01 in Rain , Thunderstorm Heavy Thunderstorms and Rain
4:10 AM 69.8 °F - 68.0 °F 94% 29.85 in 2.0 mi NW 4.6 mph - 0.03 in Rain , Thunderstorm Heavy Thunderstorms and Rain
4:18 AM 69.8 °F - 68.0 °F 94% 29.84 in 6.0 mi WNW 5.8 mph - 0.05 in Rain , Thunderstorm Light Rain
4:48 AM 71.6 °F - 68.0 °F 88% 29.85 in 1.8 mi WNW 10.4 mph - 0.10 in Rain , Thunderstorm Heavy Thunderstorms and Rain
4:53 AM 71.1 °F - 68.0 °F 90% 29.85 in 2.0 mi West 8.1 mph - 0.11 in Rain , Thunderstorm Thunderstorms and Rain
5:01 AM 71.6 °F - 68.0 °F 88% 29.87 in 8.0 mi West 8.1 mph - 0.02 in Rain , Thunderstorm Light Thunderstorms and Rain
5:12 AM 71.6 °F - 69.8 °F 94% 29.83 in 5.0 mi South 15.0 mph 23.0 mph 0.04 in Rain , Thunderstorm Rain
5:17 AM 71.6 °F - 69.8 °F 94% 29.80 in 5.0 mi SE 12.7 mph 23.0 mph 0.05 in Rain , Thunderstorm Rain
5:46 AM 69.8 °F - 68.0 °F 94% 29.82 in 9.0 mi SSW 9.2 mph - 0.10 in Rain Light Rain
5:53 AM 70.0 °F - 68.0 °F 93% 29.81 in 10.0 mi South 10.4 mph - 0.11 in Rain Light Rain
6:45 AM 69.8 °F - 66.2 °F 88% 29.83 in 8.0 mi South 9.2 mph - 0.09 in Rain , Thunderstorm Light Thunderstorms and Rain
6:53 AM 70.0 °F - 66.9 °F 90% 29.83 in 8.0 mi SSW 9.2 mph - 0.10 in Rain , Thunderstorm Thunderstorms and Rain
7:01 AM 69.8 °F - 66.2 °F 88% 29.85 in 7.0 mi SSW 9.2 mph - 0.01 in Rain Rain
7:53 AM 70.0 °F - 68.0 °F 93% 29.86 in 5.0 mi South 8.1 mph - 0.10 in Rain Rain
8:53 AM 70.0 °F - 68.0 °F 93% 29.83 in 10.0 mi South 10.4 mph - 0.08 in Rain Light Rain
9:53 AM 70.0 °F - 66.9 °F 90% 29.84 in 10.0 mi SSW 12.7 mph - 0.08 in   Scattered Clouds
10:53 AM 71.1 °F - 68.0 °F 90% 29.84 in 10.0 mi WSW 6.9 mph - 0.08 in   Clear
11:53 AM 73.0 °F - 68.0 °F 84% 29.84 in 10.0 mi SW 12.7 mph - 0.07 in   Clear
12:53 PM 78.1 °F - 71.1 °F 79% 29.83 in 10.0 mi WSW 11.5 mph 18.4 mph 0.06 in   Mostly Cloudy
1:00 PM 78.8 °F - 71.6 °F 78% 29.85 in 10.0 mi WSW 12.7 mph - 0.01 in   Mostly Cloudy
1:53 PM 77.0 °F - 71.1 °F 82% 29.85 in 10.0 mi WSW 17.3 mph 21.9 mph 0.06 in   Overcast
2:53 PM 75.9 °F - 71.1 °F 85% 29.83 in 10.0 mi WSW 10.4 mph - 0.05 in   Overcast
3:53 PM 77.0 °F - 72.0 °F 84% 29.84 in 10.0 mi West 8.1 mph - 0.05 in   Overcast
4:53 PM 80.1 °F 84.5 °F 73.9 °F 81% 29.84 in 10.0 mi WNW 9.2 mph - 0.01 in   Mostly Cloudy
5:53 PM 79.0 °F - 73.0 °F 82% 29.84 in 10.0 mi WNW 5.8 mph - N/A   Mostly Cloudy
6:00 PM 78.8 °F - 73.4 °F 83% 29.85 in 9.0 mi NW 6.9 mph - N/A   Clear
6:53 PM 78.1 °F - 72.0 °F 81% 29.84 in 10.0 mi NW 4.6 mph - N/A   Clear
7:53 PM 77.0 °F - 71.1 °F 82% 29.84 in 10.0 mi Calm Calm - N/A   Clear
8:53 PM 75.9 °F - 71.1 °F 85% 29.86 in 10.0 mi NE 4.6 mph - N/A   Clear
9:53 PM 75.9 °F - 71.1 °F 85% 29.88 in 10.0 mi ENE 3.5 mph - N/A   Mostly Cloudy
10:53 PM 75.0 °F - 70.0 °F 84% 29.89 in 10.0 mi SSE 3.5 mph - N/A   Clear
11:53 PM 75.0 °F - 70.0 °F 84% 29.90 in 7.0 mi SSE 4.6 mph - N/A   Clear